ONEWEB-0196 (48218 NORAD) Tracking and Keplerian Element Data

This shows tracking and keplerian element data for the satellite.

Feedback or suggestion? Click here.




ElementValue
Catalog48218
NameONEWEB-0196
Epoch Orbit177
Epoch Day170.58334491
Epoch Year2021
RAAN295.024
Inclination87.4901
Eccentricity0.000995
Argument of Perigee86.0098
Mean Anonmoly184.3324
Mean Motion14.39419877
Decay Rate-0.0103267
L11 48218U 21031J 21170.58334491 -.01032670 00000-0 -35562+0 0 9999
L22 48218 87.4901 295.0240 0009950 86.0098 184.3324 14.39419877 1773

Live tracking and technical data element details for ONEWEB-0196 (NORAD 48218). ONEWEB-0196 can be tracked NOW for your location showing map with azimuth and elevation plus other details from your city location.

Track the satellite on the map from your city or location and see movement details for azimuth, elevation, latitude, longitude, range, height, and movement on the map or in text.







IsCatalogInMostPopularTable: catalog: 48218, numindb: 22
Update: records affected: 1



GetName: 48218 ONEWEB-0196

Hit Count: updated at: Mon, 21 Jun 2021 04:26:06 GMT